Location: Dzierzno
(50.6159°N, 19.2852°E)
Time: 02:37:08
(UTC+00:00)

COSMO-SKYMED 1 - Pass Details

Date: 18 November 2025
Orbit: 579 x 581 km, 97.9° (Epoch: 04 December)

Event Time Altitude Azimuth Distance (km) Brightness Sun altitude
Exits shadow 15:49:54 12° 77° (ENE) 1,789 4.3 -9.0°
Maximum altitude 15:50:32 12° 87° (E) 1,767 4.3 -9.1°
Drops below altitude 10° 15:52:11 10° 111° (ESE) 1,897 4.6 -9.4°
Sets 15:55:38 0° 142° (SE) 2,788 5.7 -9.9°
